Home   Weather   Columbus   Past weeks

Flag for USA Past Weather in Columbus, Georgia, USA — Yesterday and Last 2 Weeks

Now
64 °F

Passing clouds.


Feels Like: 64 °F
Forecast: 54 / 76 °F
Wind: 5 mph from Southeast

Location: Columbus Metropolitan Airport

Current Time: Jan 16, 2017 at 10:17:09 pm

Latest Report: Jan 16, 2017 at 8:51 pm


Visibility: 10 mi

Pressure: 30.22 "Hg

Humidity: 68%

Dew Point: 53 °F

Location of ColumbusLocation

Past Weather in Columbus — Graph

°F

Columbus Temperature Yesterday

Maximum temperature yesterday: 73 °F (at 3:51 pm)
Minimum temperature yesterday: 49 °F (at 6:51 am)
Average temperature yesterday: 60 °F

High & Low Weather Summary for the Past Weeks

 TemperatureHumidityPressure
High76 °F (Jan 13, 3:51 pm)100% (Jan 1, 8:14 pm)30.76 "Hg (Jan 1, 8:14 pm)
Low19 °F (Jan 8, 6:51 am)16% (Jan 9, 4:51 pm)29.84 "Hg (Jan 4, 1:51 am)
Average51 °F73%30.21 "Hg
* Reported Jan 1 8:14 pm — Jan 16 8:51 pm, Columbus, Weather by CustomWeather, © 2017

Note: Actual official high and low records may vary slightly from our data, if they occured in-between our weather recording intervals... More about our weather records

Advertising

Columbus Weather History for the Previous 24 Hours

Scroll right to see more
 ConditionsComfort  
Time TempWeatherWind HumidityBarometerVisibility
8:51 pm
Mon, Jan 16
64 °FPassing clouds.5 mph68%30.22 "Hg10 mi
7:51 pm65 °FClear.5 mph66%30.21 "Hg10 mi
6:51 pm68 °FPassing clouds.5 mph59%30.20 "Hg10 mi
5:51 pm71 °FBroken clouds.6 mph53%30.20 "Hg10 mi
4:51 pm73 °FScattered clouds.10 mph50%30.19 "Hg10 mi
3:51 pm74 °FPartly sunny.12 mph46%30.19 "Hg10 mi
2:51 pm75 °FScattered clouds.13 mph47%30.20 "Hg10 mi
1:51 pm74 °FMore clouds than sun.12 mph50%30.22 "Hg10 mi
12:51 pm72 °FOvercast.6 mph57%30.24 "Hg10 mi
11:51 am70 °FScattered clouds.7 mph61%30.28 "Hg10 mi
10:51 am68 °FSunny.5 mph68%30.29 "Hg10 mi
9:51 am62 °FPassing clouds.5 mph80%30.29 "Hg10 mi
8:51 am59 °FPartly sunny.3 mph84%30.27 "Hg10 mi
7:51 am58 °FOvercast.3 mph84%30.25 "Hg10 mi
6:51 am56 °FOvercast.3 mph87%30.24 "Hg10 mi
5:51 am58 °FOvercast.3 mph81%30.23 "Hg10 mi
4:51 am58 °FOvercast.3 mph78%30.22 "Hg10 mi
3:51 am56 °FOvercast.3 mph81%30.21 "Hg10 mi
2:51 am56 °FOvercast.3 mph77%30.22 "Hg10 mi
1:51 am54 °FMostly cloudy.No wind83%30.23 "Hg10 mi
12:51 am55 °FClear.No wind77%30.22 "Hg10 mi
11:51 pm
Sun, Jan 15
58 °FClear.No wind72%30.22 "Hg10 mi
10:51 pm58 °FClear.No wind72%30.23 "Hg10 mi
Weather by CustomWeather, © 2017

See weather overviewHow to use our weather pages